#timestamp,LO_Frequency,Hit 
1498208415.3,286046994.4,N
1498208435.2,286046994.4,N
1498208455.9,286046994.6,N
1498208475.7,286046991.8,N
1498208495.6,286046992.5,N
1498208515.4,286046993.2,N
1498208535.2,286046992.8,N
1498208555.0,286046992.4,N
1498208556.0,286046992.4,N
1498208575.8,286046991.8,N
1498208595.6,286046991.6,N
1498208615.4,286046991.0,N
1498208635.3,286046990.9,N
1498208655.1,286046990.5,N
1498208675.8,286046990.3,N
1498208695.7,286046993.1,N
1498208715.5,286046990.8,N
1498208735.3,286046991.5,N
1498208755.2,286046989.6,N
1498208775.9,286046990.0,N
1498208795.7,286046989.9,N
1498208815.6,286046985.6,N
1498208835.4,286046986.3,N
1498208855.2,286046983.9,N
1498208875.0,286046984.7,N
1498208875.9,286046984.7,N
1498208895.8,286046984.2,N
1498208915.6,286046985.0,N
1498208935.4,286046982.5,Y
1498208955.3,286046999.1,N
1498208975.1,286046997.1,N
1498208995.8,286046995.4,N
1498209015.7,286046997.9,N
1498209035.5,286046995.3,N
1498209055.3,286046995.6,N
1498209075.2,286046998.0,N
1498209095.9,286046995.6,N
1498209115.7,286046995.7,N
1498209135.6,286046993.7,N
1498209155.4,286046993.7,N
1498209175.2,286046992.1,N
1498209195.0,286046994.4,N
1498209196.0,286046994.4,N
1498209215.8,286046994.3,N
1498209235.6,286046994.7,N
1498209255.4,286046992.9,N
1498209275.3,286046991.2,N
1498209295.1,286046991.5,N
1498209315.8,286046990.2,N
1498209335.7,286046992.3,N
1498209355.5,286046992.8,N
1498209375.3,286046992.1,N
1498209395.2,286046994.8,N
1498209415.9,286046991.3,N
1498209435.7,286046990.9,N
1498209455.6,286046991.5,N
1498209475.4,286046989.8,N
1498209495.2,286046989.2,N
1498209515.0,286046989.9,N
1498209515.9,286046989.9,N
1498209535.8,286046987.4,N
1498209555.6,286046988.2,N
1498209575.4,286046986.0,N
1498209595.3,286046986.2,N
1498209615.1,286046986.7,N
1498209635.8,286046986.8,N
1498209655.7,286046986.4,N
1498209675.5,286046983.7,N
1498209695.3,286046984.7,N
1498209715.2,286046984.7,N
1498209735.9,286046985.1,N
1498209755.7,286046982.4,N
1498209775.6,286046981.0,Y
1498209795.4,286046995.1,N
1498209815.2,286046995.9,N
1498209835.1,286046993.6,N
1498209836.0,286046993.6,N
1498209855.8,286046995.5,N
1498209875.6,286046993.9,N
1498209895.4,286046994.0,N
1498209915.3,286046994.8,N
1498209935.1,286046991.9,N
1498209955.8,286046991.9,N
1498209975.7,286046992.9,N
1498209995.5,286046993.2,N
1498210015.3,286046990.1,N
1498210035.2,286046991.1,N
1498210055.9,286046992.8,N
1498210075.7,286046993.2,N
1498210095.6,286046989.7,N
1498210115.4,286046987.0,N
1498210135.2,286046987.1,N
1498210155.0,286046988.1,N
1498210156.0,286046988.1,N
1498210175.8,286046987.1,N
1498210195.6,286046988.1,N
1498210215.4,286046986.1,N
1498210235.3,286046988.2,N
1498210255.1,286046987.4,N
1498210275.8,286046987.1,N
1498210295.7,286046986.1,N
1498210315.5,286046986.3,N
1498210335.3,286046983.8,N
1498210355.2,286046986.6,N
1498210375.9,286046984.0,N
1498210395.7,286046984.5,N
1498210415.6,286046984.8,N
1498210435.4,286046983.0,N
1498210455.2,286046980.9,Y
1498210475.1,286046995.0,N
1498210476.0,286046995.0,N
1498210495.8,286046996.7,N
1498210515.6,286046997.9,N
1498210535.5,286046995.1,N
1498210555.3,286046995.6,N
1498210575.1,286046996.3,N
1498210595.8,286046994.5,N
1498210615.7,286046993.5,N
1498210635.5,286046992.2,N
1498210655.3,286046992.6,N
1498210675.2,286046990.2,N
1498210695.9,286046990.4,N
1498210715.7,286046993.0,N
1498210735.6,286046992.8,N
1498210755.4,286046988.8,N
1498210775.2,286046987.1,N
1498210795.0,286046987.7,N
1498210796.0,286046987.7,N
1498210815.8,286046987.5,N
1498210835.6,286046987.0,N
1498210855.4,286046987.5,N
1498210875.3,286046989.9,N
1498210895.1,286046988.1,N
1498210915.8,286046987.3,N
1498210935.7,286046987.8,N
1498210955.5,286046985.3,N
1498210975.3,286046985.9,N
1498210995.2,286046985.9,N
1498211015.9,286046985.6,N
1498211035.7,286046986.3,N
1498211055.6,286046983.9,N
1498211075.4,286046984.9,N
1498211095.2,286046985.2,N
1498211115.1,286046982.6,N
1498211116.0,286046982.6,N
1498211135.8,286046985.2,N
1498211155.6,286046980.7,Y
1498211175.5,286046992.5,N
1498211195.3,286046991.9,N
1498211215.1,286046992.2,N
1498211235.8,286046992.5,N
1498211255.7,286046994.2,N
1498211275.5,286046992.1,N
1498211295.3,286046993.0,N
1498211315.2,286046990.3,N
1498211335.0,286046988.9,N
1498211335.9,286046988.9,N
1498211355.7,286046988.6,N
1498211375.6,286046991.4,N
1498211395.4,286046991.2,N
1498211415.2,286046988.5,N
1498211435.1,286046989.2,N
1498211436.0,286046989.2,N
1498211455.8,286046988.5,N
1498211475.6,286046989.8,N
1498211495.5,286046987.4,N
1498211515.3,286046987.5,N
1498211535.1,286046985.7,N
1498211555.8,286046985.8,N
1498211575.7,286046986.3,N
1498211595.5,286046986.3,N
1498211615.3,286046984.1,N
1498211635.2,286046984.3,N
1498211655.9,286046985.0,N
1498211675.7,286046982.1,Y
1498211695.6,286046995.5,N
1498211715.4,286046996.3,N
1498211735.2,286046995.6,N
1498211755.1,286046993.3,N
1498211756.0,286046993.3,N
1498211775.8,286046993.9,N
1498211795.6,286046994.2,N
1498211815.5,286046991.8,N
1498211835.3,286046994.5,N
1498211855.1,286046992.7,N
1498211875.8,286046993.2,N
1498211895.7,286046990.5,N
1498211915.5,286046990.7,N
1498211935.3,286046988.7,N
1498211955.2,286046988.7,N
1498211975.0,286046989.1,N
1498211975.9,286046989.1,N
1498211995.7,286046988.7,N
